CZ-6A R/B, 58200

Orbit data source: Space-Track

CZ-6A R/B, 58200 is space debris in SSO originally from a launch on Tue, 31 Oct 2023 UTC launched from the Taiyaun Space Center, China (TSC). Debris objects in space refer to the collection of defunct objects orbiting the Earth. Examples of debris include non-operational satellites, rocket bodies, and fragments generated from explosions, collisions, or faulty payload assembly.

Loading next visibility...
Identifier
58200, 2023-168B
Orbit
SSO
Last TLE update
13 hours ago
Origin
Manufacturer
SAST
Mission
Spacecraft
Bus & Motor
CZ-6A STAGE 2, YF-115
Mass
~6,000 kg wet, ~6,000 kg dry
Launch date (UTC)
2023-10-31 (2 years ago)
Launch vehicle
Unknown
Launch site
Taiyaun Space Center, China (TSC)
Object type
Payload
Rocket body
Debris
Shape & HBR
Unknown shape, 5.5 m
Radar Cross Section
5.500 m², Large (>1 m²)

Expand to show TLE details & history

TLE from 13 hours ago
0 CZ-6A R/B
1 58200U 23168B   25187.57974718  .00003340  00000-0  18224-3 0  9996
2 58200  97.7796 213.2921 0067163 103.9725 256.8985 15.13152249 92515
Epoch: 2025-07-06T13:54Z
TLE epoch observation values (Epoch: 2025-07-06T13:54:50.156Z)
Latitude
-0.0001°
Longitude
79.78172°
Altitude
540.473 km
Speed
7.586 km/s
True Right ascension
14h 13m 10s
True Declination
0° 00' 00"
Sunlit
Object was in daylight at epoch
Visualization orbit readout
Latitude
59.9587°
Longitude
-86.06873°
Altitude
492.449 km
Speed
7.649 km/s
Apparent Right ascension
03h 09m 11s
Apparent Declination
12° 31' 18"
Sunlit
Object is in daylight
Visualization observer readout
Local Sidereal Time
15:08:47
Azimuth
359.875° N
Elevation
-37.562°
Doppler factor
1
Orbital elements
Apogee altitude
569.939 km
Perigee altitude
477.231 km
Semi-major axis
6,901.722 km
Eccentricity
0.00672
Inclination
97.7796°
RAAN
213.2921°
Arg. of periapsis
103.9725°
True anomaly
Unknown
Mean anomaly
256.8985°
Eccentric anomaly
Unknown
Mean motion
3.78536 °/min
Orbital period
95.1 mins
BSTAR
0.00018224
Loading maneuver chart data...
Loading SW <> Apogee altitude chart data...
Loading historical data...
Loading historical data...
Loading historical data...
Loading historical data...
Loading historical data...
Loading historical data...
Loading historical data...
Other satellites on launch #168 in the year 2023 (2023-10-31 UTC)

CZ-6A R/B Visibility forecast

Observer location: undefined°, undefined°

Span
Click to sort rows by Start time (UTC) header in descending order
Start Az.
Max El. time (UTC)
Max El. Az.
Max El.
End time (UTC)
End Az.
6 mins2025-07-07 14:16:52.945Z27.087° NE2025-07-07 14:19:52.945Z93.216° ESE35.261°2025-07-07 14:22:52.945Z170.789° S
4 mins2025-07-08 00:58:52.945Z113.518° SE2025-07-08 01:00:52.945Z74.733° E20.245°2025-07-08 01:02:52.945Z31.27° NE
4 mins2025-07-08 02:33:52.945Z233.631° WSW2025-07-08 02:34:52.945Z255.321° W19.904°2025-07-08 02:37:52.945Z313.665° NW
|